Wind_Speed
33 33 33 33 32 31 31 32 31 30 29 28 28 28 28 28 28 29 29 29 29 28 27 25 24 23 21 20 19 18 19 19 19 19 18 17 17 18 18 18 17 16 16 15 15 15 15 14 12 12 12 11 10 10 10 10 9 8 7 7 7 7 7 7 6 6 7 9 9 10 10 10 11 12 14 15 16 17 18 18 18 20 20 20 20
32 33 33 33 32 32 31 32 32 32 31 30 29 29 28 28 28 29 29 29 29 28 27 26 25 24 22 21 19 19 19 19 19 19 18 17 17 18 18 19 18 18 17 16 16 16 16 15 14 14 14 13 12 12 12 12 11 10 10 10 10 10 11 11 10 9 9 11 13 14 14 15 15 15 17 19 19 21 22 22 23 24 24 24 24
32 32 33 33 33 32 32 32 32 32 32 31 30 29 29 29 29 29 29 29 29 28 28 27 26 25 24 22 20 20 19 19 18 19 19 18 18 18 19 19 19 19 18 17 17 17 16 15 15 16 16 15 14 14 14 14 14 13 14 14 13 14 15 15 15 15 13 13 15 17 18 20 20 20 21 23 23 25 25 26 27 28 28 28 28
32 32 33 33 33 33 32 32 31 32 32 31 31 30 29 29 29 29 29 29 29 29 28 28 28 27 26 24 21 20 19 19 18 18 19 19 19 19 19 20 19 19 18 17 18 17 16 15 15 16 17 16 15 15 15 16 16 16 16 16 17 18 19 19 19 20 19 17 17 19 21 23 24 24 25 27 28 29 30 30 30 31 31 31 31
32 32 33 33 34 33 33 32 32 32 32 32 31 30 30 30 30 29 29 29 29 29 29 29 29 28 26 24 22 20 19 19 19 19 19 20 20 20 20 20 19 18 17 17 17 17 15 14 14 15 16 15 14 15 16 16 17 17 17 18 19 20 21 22 22 23 24 23 22 22 24 26 27 27 28 30 31 32 33 33 34 34 34 34 35
32 32 32 33 34 33 33 33 32 31 31 31 31 31 31 30 30 29 29 28 28 28 28 28 28 28 26 25 23 21 20 20 19 20 20 22 22 21 21 20 18 17 17 17 16 15 13 13 13 13 12 12 12 13 14 15 16 16 17 18 19 21 22 23 24 26 27 27 27 26 26 27 29 29 29 31 33 34 34 34 35 35 36 37 37
32 31 31 32 33 33 33 33 31 30 30 30 30 31 31 31 30 29 29 28 28 28 27 27 27 26 26 25 24 22 21 21 21 21 21 22 23 22 21 19 18 17 16 15 14 13 12 12 11 10 9 10 10 11 12 13 14 14 15 16 18 20 21 22 24 26 27 29 29 29 28 28 29 29 29 30 33 34 34 35 36 35 35 37 38
32 30 30 30 30 31 32 32 31 30 30 30 30 30 31 31 31 30 29 29 28 27 27 26 26 26 26 25 25 24 23 23 22 21 22 23 23 22 21 19 18 17 16 15 14 13 12 12 11 10 10 10 11 12 13 14 15 15 15 17 19 21 22 23 24 25 27 28 28 27 27 27 27 27 28 29 31 32 34 36 37 36 35 37 38
32 30 29 28 27 28 30 31 31 31 30 30 30 30 30 30 30 30 30 29 29 28 27 26 26 26 25 25 25 25 25 24 22 21 22 23 24 23 22 20 19 19 18 17 16 15 14 13 13 12 12 12 12 13 14 15 17 17 18 20 22 23 23 24 24 25 26 27 27 26 27 26 26 26 28 29 31 31 33 35 37 36 36 37 37
31 31 30 28 26 26 27 28 30 31 31 30 30 29 29 29 29 29 29 29 29 28 27 27 26 25 25 25 26 26 25 24 22 21 22 24 25 24 23 22 22 21 20 19 18 17 16 15 15 14 14 14 14 15 16 17 19 20 21 23 24 25 25 25 26 26 26 27 27 27 28 27 27 28 30 31 32 33 35 37 38 38 39 39 40
31 31 30 28 27 26 25 25 27 28 29 30 30 30 29 28 28 27 27 28 28 28 28 27 26 25 25 25 26 26 25 23 23 22 23 24 26 26 25 24 24 23 22 21 20 19 19 18 17 17 16 16 16 17 18 19 20 22 23 24 25 25 24 24 24 25 26 27 27 28 29 29 30 32 33 34 36 37 38 40 42 42 42 43 44
31 30 29 29 28 27 26 26 25 26 27 28 29 29 29 28 27 26 27 27 27 28 28 27 25 25 24 24 25 26 24 23 23 23 23 25 26 27 27 27 26 25 24 23 22 21 21 20 19 19 17 17 18 19 19 20 21 22 22 22 23 22 22 23 24 25 26 28 29 30 31 32 33 35 37 38 40 41 41 42 44 45 45 46 46
32 31 30 29 29 28 27 26 26 25 25 26 27 28 28 28 27 26 26 26 27 28 28 27 26 26 25 24 24 24 24 23 23 23 24 25 26 27 28 28 28 27 26 25 24 23 22 22 21 20 19 19 20 20 20 20 20 21 21 21 21 22 23 25 26 27 29 30 31 31 32 35 37 38 39 41 42 43 43 43 44 46 47 47 47
34 32 32 30 30 29 28 26 26 25 24 25 26 27 27 27 26 26 26 26 27 28 28 27 27 26 25 24 24 23 23 22 23 24 24 25 26 27 28 29 29 28 27 26 25 24 23 23 22 21 21 21 21 21 20 20 20 21 21 22 22 24 26 28 28 29 30 32 33 33 34 37 40 40 41 42 44 44 44 44 44 45 45 44 43
34 33 33 32 31 30 28 26 26 25 25 25 26 27 28 27 27 27 26 27 27 27 27 27 27 27 26 25 25 24 22 22 23 23 24 25 26 27 28 29 29 29 28 27 26 25 24 24 24 24 23 22 22 22 21 21 21 22 22 23 24 26 28 30 30 32 33 34 35 36 36 38 41 42 42 43 44 44 43 43 42 42 41 40 39
32 32 33 33 31 29 27 26 26 26 26 26 27 28 29 28 28 27 27 27 27 27 27 28 28 27 27 27 26 25 23 22 23 23 23 24 26 27 28 29 29 28 28 27 26 26 26 26 26 25 24 23 22 22 22 22 22 22 23 24 26 28 30 31 32 33 35 36 36 37 38 39 40 41 41 42 42 42 40 39 38 39 40 40 41
31 32 33 33 31 30 28 26 24 24 24 25 26 27 27 27 27 27 27 27 26 26 26 26 26 26 27 27 27 26 24 24 24 24 24 25 26 28 28 29 29 28 27 27 27 27 27 27 27 26 25 24 23 23 24 23 23 23 24 26 28 30 32 32 32 33 35 35 35 37 38 38 38 39 38 38 38 38 38 37 35 37 39 42 45
32 33 33 32 31 30 29 27 26 25 24 23 23 23 23 23 24 24 24 25 24 24 24 24 25 25 26 27 26 26 26 26 26 26 27 27 28 28 28 29 29 28 28 28 28 28 28 27 27 27 26 25 24 25 25 25 25 24 26 28 30 31 32 32 33 33 33 33 34 36 36 36 35 34 33 33 33 35 36 36 36 38 41 44 48
31 32 32 32 31 31 31 30 28 27 26 24 24 23 22 22 21 22 22 22 22 22 22 23 23 24 25 25 25 26 26 26 27 28 28 29 29 29 29 29 29 28 28 28 28 28 28 28 28 28 27 26 26 26 26 26 26 26 28 30 32 33 33 33 33 33 33 34 35 35 35 34 33 30 28 28 29 31 34 35 37 40 43 46 49
30 31 32 32 32 32 32 31 29 28 27 27 26 25 25 25 24 24 24 23 22 22 22 22 22 22 23 24 25 26 26 26 27 28 28 29 29 30 30 30 29 28 28 28 29 29 29 29 29 29 28 28 28 28 28 28 28 29 30 33 34 34 35 35 35 35 35 35 35 35 34 33 30 26 25 26 27 30 32 35 38 41 44 47 50
30 31 31 31 31 31 31 31 30 29 29 29 28 28 27 27 26 26 26 25 25 24 23 23 23 22 23 23 23 24 25 25 26 27 28 29 29 30 30 30 29 28 29 30 31 30 30 30 30 30 30 30 31 31 31 31 31 31 32 35 36 36 36 36 36 36 36 36 34 33 32 29 26 24 25 27 29 31 33 35 39 42 45 48 51
30 29 29 28 29 29 30 29 29 29 29 29 29 28 28 28 27 27 27 27 26 26 25 25 24 24 24 23 23 23 23 24 25 26 27 28 29 30 31 30 29 30 31 32 32 32 32 32 32 32 32 33 33 33 33 33 33 33 34 37 38 37 36 37 37 37 36 35 33 30 27 25 24 24 26 28 29 32 34 36 40 43 46 49 52
28 27 26 26 26 27 27 27 28 28 28 28 28 28 28 28 28 28 28 28 28 27 27 27 27 27 26 25 24 23 24 24 25 26 27 27 28 30 30 31 31 32 33 34 33 33 33 34 34 34 34 35 35 35 36 36 36 37 37 38 38 38 38 38 37 36 35 33 30 26 24 24 25 25 27 28 30 33 35 37 41 45 48 50 52
25 23 22 21 22 23 24 24 25 26 26 27 27 27 27 27 27 27 27 28 28 28 29 29 29 29 28 27 27 26 26 26 26 26 27 27 28 29 30 31 33 34 35 35 35 35 35 35 35 35 36 36 37 38 39 39 39 39 39 38 38 39 39 37 36 35 33 29 26 24 23 24 25 26 27 29 31 34 37 39 43 46 49 52 53
22 20 19 18 19 20 21 23 24 25 26 26 27 27 27 26 26 25 26 26 26 27 27 28 29 29 29 29 29 29 28 28 29 29 29 29 29 30 31 32 34 35 36 36 36 36 36 36 36 37 38 39 39 40 40 40 41 40 39 38 38 38 37 37 35 33 29 24 23 22 23 24 26 26 28 29 31 36 39 41 44 47 51 54 55
20 19 18 18 20 21 22 22 23 24 25 26 26 26 26 26 26 26 25 25 25 25 26 26 27 27 27 28 28 29 30 30 31 31 32 32 32 31 32 33 34 35 35 36 36 36 37 37 38 39 40 40 41 41 41 41 41 39 38 37 37 36 35 34 31 27 24 22 22 23 23 25 26 27 28 30 33 37 41 44 46 49 52 55 57
19 18 18 19 21 21 20 19 19 20 21 22 22 23 24 24 25 24 24 24 24 24 24 24 25 25 26 26 27 28 29 29 30 31 33 34 34 35 35 36 36 36 37 37 38 38 39 40 41 41 41 41 41 41 40 39 38 37 37 37 35 33 32 29 25 22 22 22 23 24 25 26 27 28 30 32 34 39 43 46 49 51 53 56 58
18 17 19 21 22 20 19 17 17 16 16 17 18 20 20 21 21 21 21 21 21 21 22 21 22 23 24 26 27 28 28 28 29 30 31 32 33 34 36 37 37 37 37 38 38 39 40 40 40 40 40 40 39 38 38 37 36 35 34 34 33 31 28 24 22 21 22 23 24 25 26 27 28 29 31 33 36 40 43 47 50 52 54 56 58
21 20 19 21 22 21 20 19 16 15 14 14 14 16 17 19 19 18 19 19 18 18 18 18 19 20 21 23 25 26 27 29 29 30 30 30 30 31 32 32 33 34 34 35 36 36 36 37 36 37 37 36 35 35 34 32 31 31 31 32 32 29 25 22 22 22 23 24 25 26 27 28 29 30 32 34 37 40 44 47 50 52 55 56 57
24 23 20 20 22 21 20 19 17 15 14 13 13 14 15 16 18 18 18 18 18 18 18 18 18 18 18 19 20 21 23 26 28 30 31 31 31 31 31 32 32 33 33 33 34 34 34 34 34 34 34 33 31 30 29 28 28 31 33 32 29 26 23 22 23 24 25 26 27 28 28 29 30 32 34 36 39 41 44 47 50 52 54 56 56
21 22 20 19 19 18 17 17 16 15 15 15 15 15 16 17 18 19 19 20 20 19 19 19 18 18 18 18 18 19 20 22 24 26 28 29 30 31 31 32 33 33 33 33 32 31 31 30 29 29 29 28 27 27 28 29 30 32 31 28 25 23 23 23 24 25 26 27 28 29 30 31 32 34 36 38 40 42 45 48 50 52 54 55 55
21 21 19 18 18 17 17 18 18 18 18 17 17 17 18 19 20 20 21 21 21 21 20 20 20 19 19 19 19 20 21 21 22 23 23 25 26 27 28 29 30 29 28 27 23 21 22 22 21 22 23 24 23 25 26 27 27 26 25 24 23 23 24 24 25 26 27 28 28 30 31 32 34 35 37 39 41 43 46 48 50 51 53 53 53
22 22 20 19 20 19 18 18 20 20 20 19 19 19 20 21 22 22 22 23 22 23 23 22 22 22 21 21 21 21 22 22 23 22 22 21 21 22 23 24 24 23 22 19 17 17 20 21 20 20 21 21 22 23 23 23 23 23 23 23 24 24 25 25 26 27 27 28 29 30 32 33 34 36 37 39 42 45 47 49 50 51 52 51 50
24 22 21 22 22 21 19 19 20 21 21 21 22 21 21 21 22 22 23 24 24 24 24 24 24 24 23 23 23 23 23 24 24 23 21 18 17 21 24 23 21 20 18 18 19 20 22 21 18 18 19 20 21 22 23 23 23 23 23 24 25 25 26 26 26 27 28 29 30 31 32 33 35 36 38 40 43 45 47 49 49 50 49 49 49
23 23 23 23 24 23 22 22 22 22 22 22 23 23 23 23 23 23 24 24 24 25 25 25 25 25 25 25 24 23 22 24 25 24 22 21 23 25 24 21 20 19 18 18 20 20 18 16 16 18 21 22 22 22 23 23 23 23 24 24 25 25 26 27 27 28 29 30 31 32 33 34 36 37 39 41 44 46 47 47 48 48 47 46 46
24 24 25 25 25 24 24 24 24 23 23 22 23 24 25 25 25 25 25 25 25 25 25 25 25 26 25 26 25 24 24 24 24 24 24 24 25 25 21 20 20 20 20 20 22 21 19 19 22 24 26 26 25 24 23 23 23 23 24 25 25 26 27 27 28 29 30 31 32 33 34 35 36 37 40 42 44 45 46 45 45 44 44 43 43
25 25 25 24 23 22 22 22 23 23 22 22 23 23 24 25 25 25 25 25 25 25 25 26 26 26 25 24 24 23 23 23 22 22 23 23 24 23 22 22 23 23 22 22 23 23 23 23 24 26 27 26 25 24 23 22 23 24 24 25 26 27 27 28 28 29 30 31 32 33 34 35 36 38 40 42 43 43 43 42 42 41 40 40 40
23 23 21 20 19 18 19 20 21 22 22 23 23 23 23 24 24 25 25 25 25 25 26 25 23 21 21 21 20 19 19 19 19 19 20 21 21 21 21 22 23 23 23 23 24 24 24 24 24 25 25 24 23 22 22 22 23 24 25 26 27 27 28 28 29 29 30 31 32 33 34 35 37 39 41 41 41 41 40 39 38 37 37 37 37
20 19 18 17 16 16 16 18 19 20 22 22 22 23 23 23 24 24 24 24 25 25 22 19 16 16 18 19 18 17 16 16 17 17 19 19 20 21 21 22 23 24 24 25 25 25 24 24 23 23 22 22 22 22 22 23 24 25 26 27 27 28 28 29 29 30 31 31 32 33 35 36 38 39 39 39 38 38 37 36 35 34 34 34 34
17 17 17 17 16 16 16 17 18 18 19 20 21 22 22 22 23 23 23 24 24 20 15 13 15 18 19 19 17 16 16 16 17 19 21 21 21 21 22 23 24 25 26 27 26 26 25 24 23 23 22 22 22 23 23 24 25 25 26 27 28 29 29 30 30 31 32 32 33 34 35 36 37 38 37 36 35 34 33 33 32 32 31 32 32
16 16 17 17 17 17 17 18 18 18 19 19 19 20 20 21 21 21 22 21 18 12 11 15 20 21 20 19 18 17 17 17 18 19 22 23 23 23 22 21 21 22 24 26 26 26 25 24 23 23 23 23 24 24 25 25 26 26 27 28 29 29 30 31 32 32 33 33 34 34 35 36 36 36 35 33 32 31 31 30 30 29 30 30 30
16 16 16 17 17 17 18 18 18 19 19 19 19 19 19 20 20 20 21 20 17 15 16 20 22 22 22 21 20 18 18 18 19 20 22 24 25 24 23 22 21 21 22 23 24 24 23 23 23 23 24 24 25 25 26 26 27 27 28 28 29 30 31 32 33 33 34 34 35 35 35 35 34 33 32 31 30 29 29 28 27 28 28 29 29
15 14 15 15 16 16 16 17 17 18 18 18 18 18 18 19 20 20 21 21 21 20 21 22 23 22 22 21 20 20 20 20 21 22 23 24 24 24 23 22 22 22 23 23 22 22 22 23 24 24 25 25 26 26 27 28 28 29 29 30 30 31 32 33 34 34 34 35 35 34 34 33 32 31 30 29 28 28 27 26 26 27 27 28 28
13 12 13 13 13 14 14 14 14 14 14 15 15 16 16 17 19 20 21 22 23 23 23 23 24 24 24 24 23 22 21 21 22 23 24 24 24 24 23 23 23 23 23 23 23 23 23 24 25 25 26 27 27 27 28 28 29 30 30 31 32 32 33 33 34 34 34 34 34 33 33 31 30 29 29 28 28 27 26 25 25 26 27 27 28
11 11 12 12 12 12 12 12 12 12 12 12 13 14 15 16 18 19 21 22 23 24 24 24 24 25 25 25 25 24 23 23 23 23 24 25 25 26 26 25 24 24 24 24 25 25 25 26 26 27 27 27 28 29 29 30 30 31 31 32 32 33 33 33 33 33 33 32 32 32 32 31 30 29 28 28 28 27 26 26 26 27 27 28 28
13 13 13 13 13 12 12 12 12 12 12 12 12 13 15 16 18 19 20 21 21 22 23 24 25 25 26 26 27 27 27 26 26 26 26 25 25 25 25 25 24 24 24 25 25 25 26 26 27 28 28 29 29 30 31 31 31 31 32 32 32 33 33 33 32 32 32 32 32 31 31 30 29 29 28 28 28 27 27 27 28 28 29 29 29
17 17 17 16 15 15 14 14 13 13 13 12 13 13 14 16 18 19 20 20 21 22 23 23 25 26 28 28 29 30 30 30 30 29 28 26 25 24 23 23 22 23 23 24 25 25 26 27 28 29 29 30 30 31 31 32 32 32 32 32 33 32 32 32 32 32 32 32 31 30 29 28 27 28 28 28 28 28 28 28 29 30 30 30 30
22 21 20 20 19 18 17 17 16 15 14 14 14 14 15 16 18 19 20 21 21 22 22 23 24 25 27 28 28 28 28 28 28 28 27 25 24 24 23 23 23 23 24 24 25 26 27 27 28 29 30 30 30 31 32 32 32 32 32 32 32 32 32 31 31 30 29 28 28 27 26 25 25 25 27 28 29 30 30 30 30 31 32 32 31
27 26 23 22 21 21 20 19 18 18 17 17 16 16 16 17 19 21 22 23 23 23 24 25 25 25 25 26 25 26 26 26 25 25 25 25 24 24 24 24 24 25 25 26 27 27 27 28 28 29 29 30 30 31 31 31 32 32 32 32 32 31 31 30 28 27 26 26 26 25 25 24 23 23 25 26 28 29 30 30 30 31 32 32 32
32 30 27 24 22 22 22 21 20 20 20 19 18 18 19 20 21 23 24 25 25 26 26 26 26 26 26 25 25 25 25 25 25 25 25 25 25 25 25 25 26 26 27 27 27 27 27 27 28 28 29 29 30 30 30 30 30 30 30 30 30 30 29 28 27 25 25 25 25 26 25 24 24 25 26 27 28 29 29 28 28 30 31 31 31
30 30 29 27 25 24 23 23 22 22 22 21 21 21 22 22 23 25 26 26 27 28 27 27 27 26 26 26 26 25 25 25 25 25 25 25 25 25 25 26 26 26 27 27 26 26 27 27 28 29 29 29 29 30 29 29 29 29 29 28 28 27 27 26 25 25 25 25 25 26 26 27 27 28 29 30 31 32 32 30 28 28 30 31 32
Wind_Direction
221 219 219 220 220 218 217 216 215 216 216 217 216 215 213 212 213 214 215 216 218 220 222 225 227 230 232 233 234 235 236 235 234 233 232 228 225 224 224 226 229 230 231 233 236 238 237 237 236 235 237 239 245 252 259 263 266 269 273 275 275 276 273 267 255 251 265 277 278 279 284 288 290 292 293 294 295 296 297 299 300 300 301 303 304
221 220 219 220 220 219 218 217 215 216 216 217 216 216 215 214 214 215 215 216 218 220 222 225 228 231 235 237 236 236 237 237 235 233 231 226 221 220 221 223 226 228 230 232 234 236 236 235 237 238 239 240 243 249 256 261 264 267 269 270 270 272 273 272 265 255 252 262 273 279 281 283 283 284 285 287 289 290 292 294 295 297 298 299 300
222 221 220 220 220 220 220 218 217 217 217 217 217 216 216 216 216 216 216 217 218 221 223 226 229 233 237 238 236 235 235 236 236 233 229 225 221 219 220 222 224 226 227 230 232 234 234 233 234 239 241 243 245 250 255 260 263 265 267 268 269 271 273 273 273 270 262 255 264 274 279 282 284 285 286 288 289 289 290 292 294 295 296 297 297
222 221 220 220 220 221 221 220 218 218 218 218 218 218 218 219 219 219 219 219 219 221 224 227 231 234 236 237 235 233 233 234 235 233 228 225 221 219 219 221 223 224 224 226 229 232 233 231 232 236 240 243 247 252 256 260 263 264 265 267 269 271 272 273 274 275 274 268 266 271 275 279 282 284 286 288 289 290 291 292 293 294 294 294 293
222 221 220 219 220 221 221 221 220 219 219 219 219 219 220 221 222 222 222 222 222 223 225 228 231 235 236 236 234 233 232 232 234 232 227 223 220 219 219 220 221 220 220 221 225 229 231 231 231 235 239 243 247 251 255 258 261 263 265 267 268 270 271 273 275 276 277 278 277 276 278 281 284 284 286 288 290 291 292 293 294 294 293 292 290
222 221 220 220 220 221 221 222 222 221 221 221 221 221 222 223 224 225 225 226 226 226 227 229 232 235 235 235 235 233 230 229 231 230 226 222 219 218 219 220 219 217 216 218 222 225 227 227 228 231 234 237 240 246 251 255 259 261 263 265 267 269 271 273 276 277 279 281 282 282 283 283 285 287 288 290 291 292 294 294 293 293 292 292 291
221 221 220 221 221 221 222 223 224 223 223 223 223 223 224 224 225 226 228 229 229 230 231 232 233 234 234 235 235 234 231 228 228 228 225 221 218 217 217 216 213 211 211 213 216 217 214 214 216 216 217 221 229 238 246 253 258 261 265 268 269 271 273 275 277 279 282 285 287 289 289 288 289 291 292 291 291 293 295 294 292 292 293 292 291
219 219 220 221 221 220 222 224 224 225 225 225 225 225 226 226 227 227 228 230 232 233 233 233 234 234 234 234 234 234 232 229 227 227 224 219 215 213 211 208 205 204 205 207 208 209 208 209 212 212 215 222 230 240 249 257 262 265 268 270 272 273 275 278 280 283 286 288 290 292 292 292 293 294 293 292 293 294 294 293 293 293 292 290 289
217 217 218 219 219 219 221 223 223 225 225 226 226 227 227 228 228 228 229 230 232 233 233 233 233 234 234 234 234 234 233 230 227 226 223 217 210 207 204 202 201 202 203 206 208 211 212 215 218 221 227 234 241 248 255 261 265 268 269 270 272 275 277 279 282 284 286 289 292 295 296 298 300 300 297 296 295 295 294 293 292 293 293 292 292
217 217 219 219 218 218 219 220 222 224 226 226 227 228 229 229 230 230 230 230 231 232 233 233 233 234 235 234 234 235 234 230 227 225 223 215 208 204 203 202 202 204 205 208 211 215 218 221 224 228 235 242 249 255 260 264 268 270 270 270 271 274 277 279 282 284 288 292 296 298 300 304 305 303 300 298 297 296 294 292 293 294 295 296 297
214 216 218 219 219 220 219 219 220 222 225 226 228 229 230 230 231 231 230 230 231 231 232 233 233 234 235 234 234 234 234 231 228 225 222 216 210 207 205 205 206 207 209 211 214 217 222 225 229 234 239 247 255 261 265 268 270 270 271 271 273 275 279 281 283 286 288 293 297 298 300 303 303 299 297 296 295 294 294 294 295 296 298 299 300
211 212 213 215 217 219 220 220 220 221 222 224 226 228 230 231 231 231 230 230 230 230 231 232 233 233 234 233 232 233 233 231 229 227 223 219 215 212 210 209 210 211 212 215 217 220 224 228 233 237 243 252 259 264 268 271 271 271 271 271 273 276 280 283 286 288 290 293 296 297 299 301 299 296 295 295 293 294 296 297 298 299 300 300 301
209 208 208 210 213 216 218 219 220 220 220 222 223 225 228 229 229 230 230 229 229 229 230 231 231 233 233 232 231 231 230 229 230 229 226 223 221 219 217 215 215 216 217 218 221 224 227 232 237 241 248 255 261 266 268 268 268 269 269 271 274 277 281 284 287 291 293 296 297 299 300 299 297 295 295 295 295 296 298 299 300 301 301 302 304
209 209 208 208 210 213 216 218 220 220 220 220 221 223 225 227 227 228 228 228 228 228 228 229 230 232 233 233 232 231 229 227 228 230 229 227 226 225 224 223 222 222 222 223 226 229 232 237 242 246 251 256 261 264 264 263 263 265 268 274 279 282 285 287 290 294 296 296 298 299 299 296 295 295 296 296 297 299 300 302 302 302 303 305 306
212 212 212 212 212 214 217 220 222 221 220 220 220 221 223 223 224 226 226 227 228 228 228 228 229 231 233 234 234 233 230 227 227 228 229 230 230 230 230 229 228 228 227 229 231 234 238 242 245 248 251 255 258 259 259 259 261 266 273 280 284 286 288 289 291 294 294 294 295 295 294 293 293 295 297 298 299 300 302 303 303 304 306 306 305
211 212 213 214 215 216 219 221 221 221 220 220 219 219 220 221 222 224 225 227 228 227 227 227 228 229 231 233 235 234 231 229 228 228 229 230 231 232 232 232 232 231 231 232 235 238 241 244 246 248 250 252 253 254 255 256 261 269 276 281 285 287 288 288 290 291 290 290 290 290 289 291 293 296 298 298 299 301 301 303 305 306 306 305 306
209 210 212 214 215 216 218 218 217 216 216 216 216 217 219 220 222 223 225 227 228 228 228 229 229 230 231 233 235 235 234 233 232 231 230 231 232 232 232 233 234 233 234 235 238 240 242 244 246 248 249 250 250 251 252 256 262 270 276 280 283 284 285 288 289 288 286 286 287 286 288 291 294 297 298 299 299 299 299 303 306 305 304 305 309
209 209 210 213 215 217 217 217 217 216 215 213 213 214 215 217 219 222 224 227 228 229 230 230 230 230 231 233 234 234 233 232 232 232 231 232 232 232 232 233 234 234 235 236 238 240 241 243 246 249 250 250 250 251 254 259 264 270 275 279 282 283 285 287 287 285 285 286 287 288 292 295 297 299 301 301 300 298 300 305 308 307 309 312 315
208 208 209 212 215 217 219 220 220 220 220 218 217 216 216 216 217 220 223 225 226 227 228 228 228 229 230 231 231 231 231 229 229 230 230 230 231 231 231 233 233 234 235 236 238 240 241 243 247 251 253 253 253 255 258 262 267 272 277 281 284 286 288 288 286 286 287 288 291 294 297 299 299 300 300 299 300 301 304 309 311 312 314 316 316
205 207 208 210 213 217 219 221 222 223 223 224 223 222 222 222 222 223 224 225 225 226 226 226 227 227 229 229 229 229 229 228 227 228 228 228 228 229 230 232 233 234 236 238 239 241 243 246 248 252 255 256 258 260 262 266 271 276 281 285 287 289 290 289 289 289 290 291 294 297 298 297 296 297 298 300 302 305 308 311 312 313 313 314 314
203 206 208 210 212 215 218 220 221 222 223 224 225 224 224 223 223 224 225 226 226 225 225 226 226 227 228 228 228 228 228 228 228 228 227 227 227 228 230 231 233 235 238 240 242 243 246 248 251 254 256 258 260 263 266 270 275 280 284 286 288 288 289 290 290 290 290 292 294 296 295 293 294 296 300 303 306 307 310 311 311 310 311 312 312
202 205 207 208 209 212 215 216 217 219 220 221 222 222 222 222 222 223 224 225 225 225 225 225 225 226 228 228 228 228 229 230 229 229 229 228 228 229 231 232 234 236 239 242 245 247 249 251 253 255 257 260 263 266 270 273 277 281 283 285 287 288 288 288 288 288 289 292 295 294 292 290 293 298 301 303 305 306 308 309 309 309 310 311 312
200 201 203 205 206 209 211 212 214 215 217 219 220 220 221 222 222 222 223 223 224 224 225 225 225 226 227 228 228 228 229 231 232 232 232 231 231 231 232 234 235 237 241 244 247 249 252 254 256 258 260 263 265 268 271 275 278 280 282 284 286 286 286 286 286 288 292 295 295 293 290 291 295 298 300 301 302 303 305 307 308 309 310 311 312
199 199 202 204 207 210 212 214 216 216 217 219 220 221 222 224 225 226 226 226 226 226 227 228 228 228 228 230 230 230 230 231 233 234 235 235 234 233 234 235 237 239 242 245 248 251 253 256 258 261 263 265 268 270 273 276 278 281 282 284 284 284 284 285 286 289 292 293 290 287 287 290 293 295 297 299 301 302 305 307 308 310 310 312 313
200 201 204 206 208 211 213 215 217 218 218 220 221 222 224 226 228 228 229 230 230 230 230 232 233 233 233 233 234 233 233 233 234 235 237 237 237 237 236 237 239 241 243 245 248 252 255 257 260 262 264 266 269 272 275 277 280 281 282 282 282 283 284 286 288 290 289 286 284 284 286 289 291 293 296 298 301 303 305 307 309 310 311 313 314
203 204 206 207 206 206 208 211 213 214 216 218 220 221 224 226 228 228 229 231 231 231 231 233 235 237 237 237 237 237 237 238 238 238 239 240 241 241 240 241 242 244 246 248 250 253 255 258 260 262 265 268 271 274 277 279 280 280 280 281 281 283 286 288 287 286 283 282 283 286 289 291 293 295 298 300 304 306 307 308 309 310 312 313 315
204 206 206 203 199 196 197 200 204 208 212 214 215 217 220 223 225 227 228 230 231 232 234 236 238 240 241 240 240 240 242 243 242 242 243 244 244 245 245 246 247 248 249 252 254 255 258 260 263 266 269 271 273 275 276 277 277 278 279 279 281 284 286 285 281 277 278 282 285 289 292 294 295 296 298 303 306 307 307 308 310 312 314 315 315
197 196 195 195 191 187 186 189 193 200 207 211 215 217 219 222 224 226 227 229 231 233 235 238 240 242 242 242 242 243 246 247 247 247 247 247 248 249 249 250 252 253 255 257 259 260 262 264 266 268 270 271 273 273 273 274 275 276 276 278 282 285 283 277 274 276 280 284 287 290 292 293 294 297 300 304 305 305 306 308 311 313 315 315 316
205 202 199 198 196 195 196 196 197 201 207 213 219 222 224 226 227 227 226 225 224 225 227 229 232 236 239 241 243 245 247 249 250 252 253 254 255 255 255 256 256 256 257 258 259 261 263 264 265 266 267 268 269 269 270 271 270 270 273 279 283 283 277 273 275 279 283 287 290 292 293 294 296 299 301 301 302 303 306 309 312 313 315 315 317
212 211 209 207 205 207 209 210 212 216 220 221 225 227 229 230 229 228 227 225 224 224 225 227 229 233 238 243 246 248 249 250 251 252 253 255 256 257 258 258 257 257 257 258 258 259 260 261 262 263 263 264 263 263 263 262 260 265 273 279 279 275 272 273 279 283 286 290 292 294 295 297 298 299 299 299 301 304 308 311 313 314 315 316 317
212 210 209 209 212 215 218 222 228 234 236 235 233 233 234 233 231 229 228 228 230 229 230 232 234 237 241 244 246 248 250 250 250 251 252 252 253 254 255 256 257 257 257 257 257 257 258 259 259 260 261 260 259 258 259 259 261 266 272 273 271 270 273 277 282 286 289 292 294 296 297 298 298 298 299 301 303 307 310 312 314 315 315 316 318
214 211 211 215 222 228 233 239 244 245 244 244 241 238 237 237 236 234 231 232 234 235 236 238 241 242 245 246 248 251 253 254 255 256 255 253 253 253 253 253 254 255 254 254 252 251 255 257 255 255 259 260 260 260 262 263 265 267 268 268 268 272 276 280 284 288 291 293 295 296 296 297 298 299 301 303 306 309 311 313 315 315 315 316 318
214 216 219 225 231 234 238 244 248 248 246 246 244 241 240 239 239 237 236 236 237 239 241 243 245 246 248 249 251 254 256 258 259 259 260 261 261 258 255 253 251 250 248 243 232 233 251 263 261 256 258 262 264 267 268 268 268 267 266 268 271 275 280 283 287 290 292 293 293 294 295 297 299 300 302 305 308 310 312 314 315 314 315 316 319
215 222 228 233 237 238 236 239 245 247 246 246 245 243 241 240 239 239 239 238 239 241 244 247 249 251 252 252 255 258 259 259 259 258 257 253 246 247 253 254 247 241 239 234 229 238 258 271 270 265 267 269 269 270 269 267 266 265 266 270 275 279 283 286 289 290 291 291 292 294 296 298 299 301 304 306 308 311 313 314 314 314 315 317 320
221 227 232 235 240 242 242 242 244 244 243 243 244 243 242 242 243 243 242 242 243 245 248 250 251 252 253 254 255 255 254 258 261 260 257 248 240 242 247 243 236 239 246 250 253 259 263 259 255 263 273 274 270 268 266 263 263 266 270 274 279 282 285 287 288 289 290 292 294 296 298 299 301 304 306 307 309 311 313 314 314 314 316 318 320
225 229 233 236 239 243 245 245 243 241 240 240 239 239 240 241 241 241 242 244 246 248 251 253 253 252 251 252 253 250 249 254 259 259 257 255 252 248 238 225 229 247 261 263 266 269 264 254 252 259 268 271 269 266 265 265 268 272 276 279 282 284 285 287 288 289 292 294 296 298 299 301 304 305 307 308 309 311 313 313 314 315 317 319 321
224 228 231 234 238 242 244 244 241 239 237 237 238 239 240 240 240 241 242 242 244 247 249 249 249 249 249 250 250 250 250 252 254 253 254 254 254 249 239 230 237 250 257 258 262 265 265 263 262 263 265 266 266 266 268 271 275 278 280 282 283 284 285 287 289 291 294 295 297 298 300 302 304 305 306 307 309 310 312 313 314 316 318 319 320
216 221 225 229 235 240 242 242 241 238 235 235 236 237 239 241 242 243 243 244 246 246 246 245 244 245 247 249 247 246 246 247 248 250 252 249 244 241 237 237 243 248 251 253 257 259 262 266 267 266 266 266 267 270 273 276 278 280 281 282 284 285 287 289 291 292 294 295 297 299 300 301 303 304 305 307 309 311 312 313 315 316 317 318 319
211 217 223 227 231 235 238 241 241 239 238 237 236 236 238 239 242 243 244 245 245 244 243 245 243 238 241 248 249 243 238 237 237 241 245 244 239 235 234 236 242 247 251 255 258 262 266 269 269 268 268 268 270 274 276 277 279 280 282 283 285 287 289 290 291 292 293 295 297 298 299 300 301 303 305 307 309 311 312 314 315 316 317 318 319
212 219 225 229 230 230 234 238 240 239 240 240 240 240 240 240 241 243 243 244 246 244 237 230 227 226 232 242 244 236 230 228 228 232 237 240 240 239 239 241 245 250 254 258 263 266 268 269 269 269 270 270 273 275 276 278 280 282 283 286 287 289 290 291 292 293 294 296 297 298 299 300 302 304 306 308 309 311 312 313 314 316 317 319 321
204 211 219 226 229 229 230 234 237 237 238 239 240 241 241 241 243 244 242 241 242 235 209 203 214 226 236 240 236 231 229 227 225 227 230 233 238 244 248 251 253 256 259 261 263 265 267 267 268 269 270 272 274 276 278 280 282 284 286 288 289 290 291 292 293 294 295 296 297 298 299 300 302 304 306 307 308 309 311 312 313 315 318 320 323
195 199 206 215 221 224 227 231 233 234 235 236 236 237 239 240 241 241 239 234 227 214 205 211 222 232 238 236 232 229 229 229 229 232 236 241 249 256 259 261 263 265 266 265 264 264 264 265 266 268 270 273 276 279 281 283 284 285 287 288 289 290 291 292 293 295 295 296 297 298 299 300 302 303 304 304 305 306 307 310 312 315 317 320 323
195 196 200 206 211 216 220 224 228 230 231 234 234 235 237 238 238 239 240 238 234 229 226 226 230 233 234 235 235 234 234 235 237 240 243 247 253 258 261 264 268 271 271 270 267 265 264 265 267 270 272 275 278 281 283 285 286 287 288 289 289 290 290 291 293 294 294 295 296 297 298 299 300 300 301 300 300 301 304 307 310 312 315 318 320
206 206 205 205 208 211 212 215 219 222 225 230 234 237 239 240 241 242 244 245 247 245 240 235 235 237 240 243 245 243 242 243 245 245 246 249 253 258 263 267 270 270 270 267 265 265 266 268 270 273 275 278 280 282 283 284 285 286 287 288 288 288 289 290 292 293 293 294 295 296 297 298 298 297 297 296 295 297 300 304 307 309 310 313 315
226 227 224 219 217 217 217 216 216 217 219 224 230 236 241 244 245 246 246 247 248 248 244 240 239 239 241 245 247 246 245 245 247 248 250 253 256 260 264 266 265 263 263 263 263 266 268 270 273 275 276 278 279 280 280 281 282 283 284 286 287 289 290 291 291 292 293 293 294 295 295 295 294 293 292 291 291 293 297 300 303 305 307 308 310
250 248 244 241 239 236 233 231 228 224 223 225 229 235 241 245 247 249 250 249 247 245 243 241 238 235 236 239 242 244 246 249 252 254 255 255 255 254 254 254 254 254 256 259 263 266 269 271 273 275 276 277 278 279 280 281 282 283 285 286 287 288 289 290 291 292 293 293 293 292 292 291 289 288 287 287 288 290 294 297 299 302 303 304 305
257 256 255 254 253 249 246 244 240 236 233 232 233 235 240 243 247 250 251 251 249 246 245 243 241 238 237 238 241 245 248 250 253 254 254 254 253 252 250 250 252 254 257 261 264 267 269 272 273 275 277 278 279 280 281 283 284 285 286 286 287 288 289 291 292 292 292 292 291 289 287 285 284 284 284 285 286 287 290 293 295 297 298 299 300
257 255 254 254 254 253 252 251 249 249 247 245 242 240 239 242 245 248 249 249 249 247 245 244 243 241 240 241 243 245 246 246 247 249 250 251 252 254 255 257 259 260 262 264 266 268 271 273 274 276 278 279 280 282 283 284 285 286 287 288 288 289 289 290 290 289 288 287 287 286 284 282 281 281 281 283 285 287 288 289 289 290 291 293 295
257 255 253 251 249 248 248 248 250 252 253 253 251 247 243 242 244 245 246 247 246 244 242 242 241 240 240 240 240 240 241 241 243 245 247 249 252 255 257 259 261 262 264 266 268 270 272 274 275 277 279 280 282 283 284 286 287 288 288 288 288 288 289 289 287 286 285 284 284 284 284 283 282 281 280 280 282 286 289 290 288 286 286 289 291
250 250 250 249 246 244 243 246 248 248 248 249 249 246 244 242 243 244 245 246 245 244 243 243 242 240 239 239 238 239 240 241 242 244 247 250 253 255 257 260 262 263 265 267 269 271 273 274 276 278 280 281 282 283 285 286 287 286 286 286 286 287 288 288 288 287 286 286 286 286 285 283 281 281 280 279 279 281 286 290 289 284 283 286 287
243 245 247 248 247 246 245 246 245 243 242 241 239 239 240 241 242 244 246 246 246 246 245 244 244 243 242 241 241 241 242 244 245 247 249 251 253 255 257 260 262 264 266 269 271 272 274 276 277 279 280 281 282 282 283 283 282 282 282 282 283 284 285 286 287 287 287 288 288 287 286 283 281 279 279 279 279 280 282 285 285 282 281 282 283
Height
3178 3181 3183 3185 3188 3190 3192 3195 3197 3199 3202 3204 3206 3208 3210 3212 3214 3216 3217 3219 3221 3222 3224 3225 3227 3228 3230 3232 3233 3234 3234 3235 3235 3236 3237 3238 3239 3240 3241 3242 3243 3245 3246 3247 3248 3248 3249 3250 3250 3251 3251 3251 3252 3252 3252 3252 3252 3252 3252 3252 3252 3252 3251 3251 3251 3251 3250 3250 3249 3249 3248 3248 3248 3247 3246 3246 3245 3244 3243 3243 3242 3241 3240 3240 3239
3176 3178 3180 3183 3185 3188 3190 3192 3195 3197 3199 3201 3203 3206 3208 3210 3212 3213 3215 3217 3219 3220 3222 3224 3225 3226 3228 3229 3231 3232 3233 3233 3234 3234 3235 3236 3237 3238 3239 3241 3242 3243 3244 3245 3246 3247 3247 3248 3249 3249 3250 3250 3251 3251 3251 3251 3251 3251 3252 3251 3251 3251 3250 3250 3250 3250 3250 3249 3248 3248 3247 3247 3247 3246 3245 3244 3244 3242 3242 3241 3240 3239 3238 3238 3237
3173 3176 3178 3180 3183 3185 3188 3190 3192 3194 3196 3199 3201 3203 3205 3207 3209 3211 3213 3215 3217 3219 3220 3222 3223 3224 3226 3227 3228 3230 3231 3231 3232 3233 3234 3235 3236 3237 3238 3239 3240 3241 3242 3243 3244 3245 3246 3247 3248 3248 3248 3249 3250 3250 3250 3250 3250 3250 3250 3250 3250 3250 3249 3249 3248 3248 3248 3248 3248 3247 3246 3245 3245 3245 3244 3243 3242 3241 3240 3239 3238 3237 3236 3235 3235
3171 3173 3175 3178 3180 3183 3185 3187 3190 3191 3194 3196 3199 3201 3203 3205 3207 3209 3211 3213 3214 3217 3218 3220 3221 3222 3223 3225 3226 3228 3229 3230 3230 3231 3232 3233 3234 3235 3236 3237 3238 3239 3240 3241 3242 3243 3244 3245 3246 3246 3247 3248 3248 3249 3248 3248 3248 3249 3249 3249 3249 3248 3247 3247 3246 3245 3245 3246 3246 3246 3244 3243 3243 3243 3242 3240 3239 3238 3237 3237 3236 3234 3234 3233 3232
3168 3170 3172 3175 3177 3179 3182 3184 3186 3189 3191 3194 3196 3199 3201 3202 3204 3206 3208 3210 3212 3214 3216 3217 3219 3220 3221 3223 3224 3226 3227 3227 3228 3229 3230 3231 3232 3233 3234 3235 3236 3237 3238 3239 3240 3241 3242 3243 3244 3244 3245 3246 3247 3247 3247 3247 3247 3247 3247 3247 3247 3246 3245 3245 3244 3243 3242 3243 3243 3244 3243 3241 3240 3240 3239 3238 3236 3235 3235 3234 3233 3231 3230 3229 3227
3165 3167 3170 3172 3174 3176 3179 3181 3184 3186 3189 3191 3194 3196 3198 3200 3202 3204 3206 3208 3210 3212 3213 3215 3216 3218 3219 3221 3222 3223 3224 3225 3226 3227 3228 3229 3230 3231 3232 3234 3235 3236 3237 3238 3238 3239 3241 3242 3242 3243 3244 3244 3245 3245 3245 3245 3245 3245 3245 3245 3245 3244 3243 3243 3242 3241 3240 3240 3240 3240 3240 3239 3238 3237 3237 3235 3233 3232 3231 3231 3229 3228 3226 3224 3223
3162 3165 3167 3169 3171 3173 3176 3178 3181 3184 3186 3189 3191 3193 3195 3197 3199 3201 3203 3205 3207 3209 3211 3213 3214 3216 3217 3219 3220 3221 3222 3222 3223 3224 3225 3227 3228 3229 3230 3232 3233 3234 3235 3236 3237 3238 3239 3240 3240 3241 3242 3243 3243 3243 3243 3243 3243 3243 3244 3243 3243 3242 3241 3241 3240 3239 3238 3237 3236 3236 3236 3236 3235 3234 3234 3233 3230 3229 3228 3227 3225 3225 3224 3221 3219
3160 3162 3164 3166 3168 3171 3173 3176 3179 3182 3184 3186 3188 3190 3192 3195 3197 3199 3201 3202 3204 3206 3208 3210 3211 3213 3215 3216 3217 3218 3219 3220 3221 3222 3223 3225 3226 3227 3229 3230 3232 3233 3234 3235 3236 3236 3237 3238 3239 3240 3241 3241 3241 3241 3241 3241 3241 3242 3242 3241 3240 3240 3239 3238 3238 3237 3236 3234 3234 3233 3233 3233 3232 3232 3231 3230 3228 3227 3226 3223 3221 3220 3220 3217 3215
3157 3160 3161 3164 3166 3169 3171 3174 3177 3179 3181 3183 3185 3187 3190 3192 3194 3196 3198 3200 3202 3204 3205 3207 3208 3210 3212 3213 3214 3215 3216 3218 3219 3220 3222 3223 3224 3226 3227 3229 3230 3231 3232 3233 3234 3235 3236 3237 3238 3238 3239 3239 3240 3240 3240 3240 3239 3239 3240 3239 3238 3237 3237 3236 3236 3235 3234 3232 3231 3231 3230 3229 3229 3228 3227 3226 3225 3223 3222 3219 3216 3215 3214 3212 3211
3155 3157 3159 3162 3164 3167 3169 3171 3174 3176 3178 3181 3183 3185 3187 3189 3191 3193 3195 3197 3199 3201 3202 3204 3205 3207 3209 3210 3211 3212 3214 3216 3218 3219 3220 3221 3223 3224 3225 3227 3228 3229 3230 3231 3232 3233 3234 3235 3236 3237 3237 3238 3238 3238 3238 3238 3238 3237 3237 3236 3236 3235 3235 3234 3233 3233 3231 3230 3229 3228 3227 3226 3226 3225 3223 3222 3221 3219 3217 3214 3212 3211 3210 3208 3207
3152 3154 3157 3160 3162 3164 3167 3169 3171 3173 3176 3178 3180 3182 3184 3186 3188 3190 3192 3194 3196 3198 3199 3201 3203 3204 3206 3207 3209 3210 3212 3214 3216 3217 3218 3220 3221 3222 3224 3225 3226 3227 3228 3229 3230 3231 3232 3233 3234 3235 3235 3236 3236 3236 3236 3236 3235 3235 3234 3234 3233 3233 3232 3231 3231 3230 3229 3227 3227 3226 3224 3223 3223 3222 3220 3219 3217 3215 3213 3211 3209 3208 3207 3204 3202
3149 3152 3154 3157 3159 3162 3164 3166 3168 3170 3173 3175 3177 3179 3181 3183 3185 3187 3189 3191 3193 3195 3196 3198 3200 3202 3203 3204 3206 3207 3210 3212 3214 3215 3216 3218 3219 3220 3222 3223 3223 3224 3226 3227 3228 3229 3230 3231 3232 3232 3233 3234 3234 3233 3234 3233 3233 3232 3232 3231 3231 3230 3230 3229 3228 3228 3226 3225 3224 3223 3221 3220 3219 3218 3216 3215 3213 3211 3210 3208 3206 3204 3202 3200 3198
3147 3149 3152 3154 3157 3159 3161 3163 3166 3168 3170 3172 3174 3176 3178 3180 3182 3184 3186 3188 3190 3191 3193 3195 3197 3198 3200 3202 3203 3205 3207 3209 3211 3213 3214 3216 3217 3218 3220 3220 3221 3222 3223 3224 3225 3226 3227 3228 3229 3230 3231 3231 3231 3231 3231 3231 3230 3229 3229 3229 3228 3228 3227 3226 3225 3225 3223 3222 3220 3219 3219 3217 3214 3213 3212 3210 3208 3207 3206 3205 3202 3200 3197 3195 3193
3144 3146 3149 3152 3154 3156 3158 3161 3163 3165 3167 3169 3171 3173 3175 3177 3179 3181 3183 3185 3186 3188 3190 3192 3194 3195 3197 3199 3201 3203 3205 3207 3209 3210 3212 3213 3215 3216 3217 3218 3219 3220 3221 3222 3223 3224 3225 3226 3226 3227 3228 3228 3228 3228 3228 3228 3227 3227 3226 3226 3226 3225 3224 3223 3222 3222 3221 3219 3217 3216 3215 3213 3209 3208 3208 3206 3204 3203 3201 3200 3198 3195 3193 3191 3189
3141 3144 3147 3149 3151 3154 3156 3158 3160 3162 3164 3166 3168 3170 3171 3173 3176 3178 3180 3181 3183 3185 3188 3189 3191 3193 3194 3196 3198 3200 3202 3205 3206 3208 3209 3210 3212 3213 3214 3215 3216 3217 3218 3219 3220 3222 3222 3223 3223 3224 3225 3225 3225 3226 3226 3225 3225 3224 3224 3224 3223 3222 3221 3220 3220 3219 3218 3216 3214 3213 3211 3209 3206 3205 3204 3203 3200 3199 3198 3195 3193 3191 3189 3188 3186
3139 3142 3144 3147 3149 3151 3153 3155 3157 3159 3161 3163 3164 3166 3168 3170 3173 3175 3177 3178 3180 3182 3184 3186 3188 3190 3192 3193 3195 3197 3200 3202 3203 3205 3206 3207 3208 3209 3210 3212 3213 3214 3215 3217 3218 3219 3219 3219 3220 3221 3221 3222 3222 3223 3223 3223 3222 3222 3221 3221 3220 3219 3218 3217 3218 3217 3215 3213 3212 3210 3207 3206 3204 3202 3201 3199 3197 3196 3194 3191 3190 3187 3185 3182 3179
3136 3139 3141 3144 3146 3148 3151 3153 3155 3157 3158 3160 3162 3164 3166 3168 3170 3172 3174 3175 3177 3179 3181 3183 3185 3187 3189 3190 3192 3194 3197 3199 3200 3202 3203 3204 3205 3206 3207 3208 3209 3210 3212 3213 3214 3215 3216 3216 3217 3217 3218 3218 3219 3220 3220 3220 3220 3220 3219 3218 3218 3216 3215 3215 3215 3214 3212 3210 3208 3206 3204 3203 3202 3200 3198 3196 3194 3192 3189 3187 3186 3184 3180 3176 3173
3133 3136 3138 3141 3143 3145 3148 3150 3152 3154 3156 3158 3160 3162 3164 3166 3168 3169 3171 3173 3175 3177 3179 3180 3182 3184 3185 3187 3189 3191 3193 3195 3197 3198 3200 3201 3201 3202 3204 3205 3205 3207 3209 3210 3211 3212 3212 3213 3213 3213 3214 3215 3216 3216 3217 3217 3217 3217 3216 3215 3214 3213 3213 3213 3212 3210 3208 3207 3205 3203 3202 3201 3200 3198 3196 3194 3191 3188 3185 3183 3182 3179 3176 3173 3169
3131 3133 3136 3138 3140 3143 3145 3147 3150 3152 3153 3156 3158 3160 3162 3164 3166 3167 3169 3170 3172 3174 3176 3177 3179 3181 3182 3184 3186 3187 3189 3191 3192 3194 3196 3197 3198 3199 3200 3201 3202 3203 3205 3206 3207 3208 3209 3209 3210 3210 3210 3211 3212 3213 3213 3213 3213 3213 3213 3212 3210 3210 3210 3209 3207 3205 3204 3203 3201 3200 3199 3197 3196 3195 3193 3191 3189 3185 3182 3179 3177 3174 3171 3169 3166
3129 3131 3133 3135 3138 3140 3142 3144 3147 3149 3151 3153 3155 3157 3159 3161 3163 3164 3166 3168 3170 3172 3173 3174 3176 3178 3179 3181 3182 3184 3185 3187 3189 3190 3192 3193 3194 3195 3196 3197 3198 3200 3201 3202 3203 3204 3205 3205 3206 3206 3207 3207 3208 3209 3209 3209 3209 3209 3209 3207 3206 3206 3205 3204 3202 3201 3200 3199 3198 3196 3195 3194 3192 3191 3189 3188 3185 3182 3180 3177 3174 3171 3168 3166 3163
3126 3128 3130 3133 3135 3137 3139 3141 3144 3146 3148 3150 3152 3154 3156 3158 3160 3162 3163 3165 3167 3169 3170 3172 3173 3175 3176 3178 3179 3181 3182 3184 3185 3187 3188 3189 3191 3191 3192 3193 3195 3197 3198 3198 3199 3200 3201 3202 3202 3202 3203 3203 3204 3204 3205 3205 3206 3205 3205 3203 3202 3201 3201 3199 3198 3197 3196 3195 3195 3193 3191 3190 3189 3187 3186 3184 3181 3179 3177 3176 3173 3170 3167 3164 3161
3124 3126 3128 3130 3132 3134 3136 3138 3141 3143 3145 3147 3149 3151 3153 3155 3156 3158 3160 3162 3163 3165 3167 3169 3170 3172 3173 3175 3176 3177 3179 3180 3182 3183 3184 3186 3187 3188 3189 3190 3192 3193 3193 3194 3195 3196 3197 3198 3198 3199 3199 3199 3200 3200 3201 3201 3201 3201 3201 3199 3197 3196 3196 3195 3194 3193 3192 3191 3190 3189 3187 3186 3185 3184 3182 3181 3179 3176 3175 3173 3170 3167 3164 3162 3159
3122 3124 3126 3128 3130 3132 3134 3136 3138 3139 3141 3143 3145 3147 3149 3151 3153 3154 3156 3158 3160 3161 3163 3165 3166 3168 3169 3171 3173 3174 3176 3177 3178 3179 3181 3182 3184 3185 3186 3187 3188 3188 3189 3190 3191 3192 3193 3194 3194 3195 3195 3196 3196 3196 3197 3197 3197 3197 3196 3195 3193 3191 3191 3191 3190 3189 3188 3186 3185 3184 3183 3182 3181 3181 3179 3178 3176 3174 3172 3170 3167 3163 3160 3158 3156
3121 3123 3125 3127 3129 3130 3132 3134 3135 3137 3139 3141 3142 3144 3146 3147 3149 3151 3153 3154 3156 3158 3159 3161 3163 3164 3166 3168 3169 3171 3172 3174 3175 3176 3177 3179 3180 3181 3182 3183 3184 3184 3185 3186 3187 3188 3189 3190 3191 3191 3191 3192 3192 3192 3192 3192 3192 3192 3191 3191 3189 3187 3186 3185 3185 3184 3183 3182 3181 3181 3180 3178 3178 3177 3177 3175 3173 3170 3168 3166 3163 3160 3156 3153 3151
3119 3122 3124 3125 3127 3129 3130 3132 3134 3135 3137 3138 3140 3142 3143 3145 3146 3148 3149 3151 3153 3154 3156 3158 3159 3161 3162 3164 3166 3167 3169 3170 3171 3172 3173 3175 3176 3177 3179 3179 3180 3181 3182 3183 3184 3185 3185 3186 3187 3187 3187 3187 3187 3187 3187 3187 3187 3186 3186 3185 3184 3183 3182 3181 3180 3179 3178 3178 3177 3177 3176 3176 3175 3174 3173 3172 3170 3166 3163 3162 3159 3156 3151 3147 3145
3118 3120 3122 3124 3125 3127 3128 3130 3132 3133 3135 3136 3138 3140 3141 3142 3144 3145 3147 3148 3149 3151 3153 3154 3156 3157 3159 3160 3162 3163 3165 3166 3167 3168 3169 3171 3172 3173 3174 3175 3176 3177 3178 3179 3180 3181 3182 3182 3182 3183 3183 3183 3183 3183 3183 3182 3182 3181 3181 3180 3179 3179 3178 3177 3175 3174 3174 3174 3173 3173 3173 3172 3171 3170 3169 3168 3165 3162 3158 3156 3154 3152 3147 3142 3139
3116 3118 3120 3121 3123 3125 3127 3128 3130 3132 3133 3135 3136 3137 3139 3140 3141 3142 3144 3145 3147 3148 3150 3151 3153 3154 3156 3157 3159 3160 3161 3162 3163 3164 3165 3166 3168 3169 3170 3171 3172 3173 3174 3175 3176 3177 3178 3178 3178 3178 3178 3178 3178 3178 3178 3177 3177 3176 3175 3175 3174 3174 3174 3172 3171 3171 3170 3170 3170 3169 3169 3168 3167 3166 3165 3163 3161 3157 3154 3151 3148 3145 3142 3137 3133
3114 3116 3118 3120 3121 3123 3125 3127 3128 3130 3132 3133 3134 3136 3137 3138 3139 3140 3141 3143 3144 3146 3147 3148 3150 3151 3153 3154 3155 3156 3157 3158 3159 3160 3161 3162 3163 3164 3165 3166 3168 3169 3170 3171 3172 3172 3173 3173 3173 3173 3174 3173 3173 3173 3173 3172 3172 3171 3170 3170 3170 3170 3169 3168 3168 3168 3167 3167 3167 3166 3165 3164 3163 3162 3160 3159 3157 3154 3150 3147 3143 3140 3136 3132 3127
3112 3114 3116 3118 3120 3122 3123 3125 3127 3128 3130 3131 3133 3134 3135 3136 3137 3138 3140 3141 3142 3143 3144 3146 3147 3148 3149 3150 3151 3152 3153 3154 3155 3156 3157 3158 3159 3160 3161 3162 3163 3164 3165 3166 3166 3167 3167 3168 3168 3168 3168 3168 3168 3167 3167 3167 3167 3166 3166 3166 3165 3165 3165 3164 3164 3164 3164 3163 3162 3162 3161 3160 3159 3157 3156 3155 3153 3150 3147 3143 3139 3136 3132 3127 3123
3109 3112 3114 3116 3118 3120 3121 3123 3124 3126 3127 3128 3130 3131 3132 3134 3135 3136 3137 3139 3140 3141 3142 3143 3144 3145 3146 3146 3148 3149 3150 3151 3152 3152 3153 3154 3155 3156 3157 3158 3159 3159 3160 3160 3160 3161 3161 3162 3162 3162 3162 3163 3163 3163 3162 3163 3163 3162 3162 3162 3161 3161 3161 3161 3160 3160 3159 3159 3158 3157 3156 3155 3154 3153 3151 3150 3148 3146 3143 3139 3135 3131 3127 3122 3117
3106 3109 3111 3113 3115 3117 3119 3120 3121 3123 3124 3125 3127 3128 3130 3131 3132 3134 3135 3136 3137 3138 3139 3139 3140 3141 3142 3143 3144 3145 3146 3147 3148 3148 3149 3150 3151 3152 3152 3153 3153 3154 3154 3155 3155 3155 3156 3156 3157 3157 3157 3158 3158 3158 3158 3159 3159 3158 3158 3158 3158 3157 3157 3157 3156 3156 3155 3154 3153 3152 3151 3151 3149 3148 3146 3144 3142 3140 3137 3134 3131 3127 3122 3117 3113
3104 3106 3108 3110 3112 3114 3115 3117 3118 3120 3121 3122 3123 3125 3126 3128 3130 3131 3132 3133 3134 3135 3135 3136 3137 3138 3139 3140 3140 3141 3142 3143 3143 3144 3145 3146 3146 3147 3147 3148 3148 3149 3149 3149 3150 3151 3152 3152 3153 3153 3153 3153 3154 3154 3154 3155 3155 3154 3154 3154 3154 3154 3153 3153 3152 3152 3151 3150 3149 3148 3147 3146 3144 3143 3141 3139 3137 3134 3132 3129 3126 3122 3118 3113 3109
3101 3103 3105 3107 3109 3110 3112 3113 3114 3115 3117 3119 3120 3121 3123 3124 3126 3127 3129 3129 3130 3131 3132 3132 3133 3134 3135 3136 3137 3137 3138 3139 3140 3141 3142 3142 3142 3143 3143 3144 3144 3145 3145 3145 3147 3148 3148 3148 3149 3149 3149 3150 3150 3150 3150 3150 3150 3150 3150 3150 3150 3150 3150 3149 3149 3148 3147 3146 3145 3144 3143 3142 3140 3138 3136 3134 3131 3129 3127 3124 3121 3117 3113 3109 3105
3099 3101 3102 3104 3105 3107 3108 3109 3110 3111 3113 3114 3116 3117 3119 3120 3122 3123 3124 3125 3126 3127 3128 3129 3129 3130 3131 3132 3133 3134 3135 3135 3136 3137 3138 3139 3139 3139 3139 3140 3141 3141 3142 3143 3144 3144 3144 3144 3144 3145 3146 3146 3146 3146 3147 3147 3146 3146 3147 3146 3146 3146 3146 3145 3145 3144 3143 3142 3141 3140 3139 3137 3135 3133 3131 3129 3127 3125 3122 3119 3116 3112 3109 3105 3101
3096 3098 3100 3101 3102 3103 3104 3105 3106 3108 3109 3110 3112 3113 3115 3116 3117 3119 3120 3121 3122 3123 3124 3125 3125 3126 3127 3128 3130 3131 3131 3131 3133 3134 3135 3136 3136 3135 3135 3137 3139 3140 3140 3140 3140 3140 3141 3141 3141 3141 3142 3143 3143 3143 3143 3143 3143 3143 3143 3143 3143 3142 3142 3141 3141 3140 3139 3138 3136 3135 3134 3132 3130 3128 3126 3124 3122 3120 3117 3114 3111 3108 3105 3101 3098
3093 3095 3097 3098 3099 3099 3100 3102 3103 3104 3105 3107 3108 3109 3111 3112 3114 3115 3116 3117 3118 3119 3120 3121 3121 3122 3123 3124 3126 3127 3128 3129 3130 3131 3132 3132 3132 3132 3132 3135 3138 3138 3137 3136 3136 3136 3137 3138 3139 3139 3139 3139 3140 3140 3140 3141 3141 3141 3140 3140 3139 3139 3138 3137 3137 3136 3134 3133 3132 3130 3129 3127 3125 3123 3121 3119 3117 3115 3112 3110 3107 3104 3101 3098 3095
3090 3092 3093 3094 3095 3096 3097 3098 3099 3100 3102 3103 3104 3106 3107 3108 3110 3111 3112 3113 3114 3115 3116 3116 3117 3118 3120 3121 3123 3124 3125 3126 3127 3128 3128 3128 3128 3128 3128 3130 3131 3132 3132 3132 3133 3133 3134 3134 3135 3135 3136 3136 3137 3137 3138 3138 3137 3137 3136 3136 3135 3135 3134 3133 3132 3131 3130 3129 3127 3126 3124 3122 3121 3119 3117 3115 3113 3111 3109 3106 3104 3101 3098 3095 3092
3086 3088 3089 3090 3091 3092 3093 3095 3096 3097 3098 3099 3100 3102 3103 3105 3106 3107 3108 3109 3110 3110 3111 3111 3113 3116 3118 3119 3119 3120 3121 3121 3122 3123 3123 3123 3123 3124 3124 3125 3125 3126 3127 3128 3129 3129 3130 3131 3131 3132 3133 3133 3134 3134 3134 3134 3134 3133 3133 3132 3131 3131 3130 3129 3128 3127 3126 3124 3123 3122 3120 3119 3117 3115 3113 3111 3109 3107 3105 3103 3101 3098 3096 3093 3090
3082 3084 3085 3086 3087 3089 3090 3091 3092 3093 3095 3096 3097 3098 3100 3101 3102 3103 3104 3105 3105 3106 3107 3109 3112 3115 3116 3116 3116 3117 3117 3117 3118 3118 3119 3119 3120 3121 3121 3122 3122 3123 3124 3125 3126 3126 3127 3128 3128 3129 3129 3130 3130 3130 3130 3130 3130 3129 3129 3128 3127 3126 3125 3124 3123 3122 3121 3120 3119 3117 3116 3114 3113 3111 3109 3107 3105 3103 3101 3099 3097 3095 3093 3090 3088
3078 3080 3082 3083 3084 3085 3086 3088 3089 3090 3091 3093 3094 3095 3096 3097 3098 3099 3100 3101 3101 3102 3105 3108 3109 3110 3112 3113 3113 3113 3113 3113 3114 3114 3115 3116 3117 3118 3118 3119 3120 3120 3121 3121 3122 3123 3124 3124 3125 3125 3126 3126 3126 3126 3126 3126 3126 3125 3124 3123 3122 3121 3120 3119 3118 3117 3116 3115 3114 3113 3111 3109 3108 3106 3104 3102 3101 3099 3097 3095 3094 3092 3089 3087 3085
3076 3077 3079 3080 3081 3082 3083 3084 3086 3087 3088 3089 3090 3092 3093 3093 3095 3095 3096 3097 3098 3100 3103 3106 3106 3106 3108 3108 3109 3109 3110 3110 3110 3111 3111 3112 3113 3114 3115 3115 3115 3116 3117 3118 3119 3119 3120 3121 3121 3121 3122 3122 3122 3122 3122 3122 3121 3120 3119 3118 3117 3116 3115 3114 3113 3112 3111 3110 3109 3108 3106 3105 3103 3101 3100 3098 3097 3095 3094 3092 3090 3088 3086 3084 3082
3074 3075 3076 3078 3079 3079 3080 3081 3082 3084 3085 3086 3087 3089 3089 3090 3091 3092 3093 3095 3096 3097 3100 3102 3103 3104 3104 3104 3105 3106 3107 3107 3108 3108 3109 3109 3110 3110 3111 3111 3111 3112 3113 3114 3115 3116 3116 3117 3117 3117 3118 3118 3118 3118 3117 3117 3116 3115 3115 3114 3112 3111 3110 3109 3108 3106 3105 3104 3103 3102 3101 3100 3098 3097 3096 3094 3093 3092 3090 3089 3087 3085 3083 3081 3079
3072 3073 3074 3075 3076 3077 3078 3079 3080 3081 3082 3083 3084 3085 3086 3087 3088 3089 3090 3091 3092 3093 3095 3097 3099 3100 3100 3101 3101 3102 3103 3104 3105 3105 3106 3106 3107 3107 3107 3107 3108 3108 3109 3110 3111 3112 3112 3112 3113 3113 3113 3113 3113 3113 3112 3112 3111 3110 3109 3108 3108 3106 3105 3104 3103 3101 3100 3099 3098 3097 3096 3095 3094 3093 3091 3090 3089 3088 3087 3086 3084 3082 3080 3078 3076
3070 3071 3072 3073 3074 3075 3076 3077 3077 3078 3079 3080 3081 3082 3083 3084 3085 3086 3087 3088 3088 3089 3091 3093 3094 3095 3096 3097 3097 3098 3099 3100 3101 3102 3103 3103 3103 3103 3104 3104 3105 3105 3105 3106 3107 3107 3108 3108 3108 3109 3109 3109 3109 3108 3108 3107 3106 3105 3104 3103 3102 3101 3100 3099 3098 3097 3096 3094 3093 3092 3091 3091 3090 3088 3087 3086 3085 3084 3083 3082 3081 3079 3077 3076 3074
3068 3069 3070 3071 3072 3073 3074 3074 3075 3076 3076 3077 3078 3079 3080 3081 3082 3083 3084 3085 3085 3086 3087 3089 3090 3091 3092 3092 3093 3094 3095 3096 3096 3097 3098 3099 3099 3100 3100 3101 3101 3101 3102 3102 3102 3103 3103 3103 3104 3104 3104 3104 3104 3103 3103 3102 3101 3101 3100 3098 3097 3096 3095 3094 3093 3092 3091 3090 3089 3088 3087 3086 3085 3084 3083 3082 3081 3080 3079 3078 3077 3076 3074 3073 3071
3066 3067 3068 3069 3070 3071 3071 3072 3073 3073 3074 3074 3075 3076 3077 3078 3079 3080 3081 3082 3082 3083 3084 3085 3086 3087 3088 3088 3089 3089 3090 3091 3092 3092 3093 3094 3095 3096 3096 3097 3098 3098 3098 3098 3099 3099 3099 3099 3099 3099 3099 3099 3098 3098 3097 3097 3096 3095 3094 3094 3093 3092 3091 3090 3089 3088 3087 3086 3085 3084 3083 3082 3081 3080 3079 3078 3078 3077 3076 3075 3073 3072 3071 3070 3069
3064 3065 3066 3066 3067 3068 3069 3070 3070 3071 3071 3072 3072 3073 3074 3075 3076 3077 3078 3078 3079 3080 3080 3081 3082 3083 3084 3084 3085 3085 3086 3087 3087 3088 3088 3089 3090 3091 3092 3093 3093 3094 3094 3094 3094 3094 3094 3094 3094 3093 3093 3093 3092 3092 3091 3091 3090 3090 3089 3088 3088 3087 3086 3085 3085 3084 3083 3082 3080 3079 3078 3078 3077 3076 3075 3074 3074 3073 3072 3071 3070 3069 3068 3067 3066
3062 3062 3062 3063 3064 3065 3067 3068 3068 3068 3068 3069 3069 3070 3071 3072 3073 3074 3075 3075 3076 3077 3077 3078 3078 3079 3080 3080 3081 3082 3082 3083 3083 3084 3085 3085 3086 3087 3088 3088 3089 3089 3090 3090 3090 3089 3089 3089 3089 3088 3088 3087 3087 3086 3086 3085 3085 3084 3084 3083 3083 3082 3082 3081 3080 3079 3078 3077 3076 3075 3074 3073 3073 3072 3071 3070 3070 3069 3068 3068 3067 3066 3065 3064 3063
3058 3059 3059 3059 3060 3062 3064 3064 3065 3065 3065 3065 3066 3067 3067 3068 3070 3070 3071 3072 3073 3074 3074 3075 3075 3076 3076 3077 3078 3078 3079 3079 3080 3081 3081 3082 3083 3083 3084 3084 3085 3085 3085 3085 3085 3085 3085 3084 3084 3083 3083 3083 3082 3082 3081 3080 3080 3079 3078 3078 3077 3077 3076 3076 3075 3074 3073 3072 3072 3071 3070 3069 3069 3068 3067 3067 3066 3065 3064 3063 3063 3062 3061 3060 3059
3054 3054 3055 3055 3056 3058 3059 3060 3061 3061 3062 3062 3063 3063 3064 3065 3066 3067 3067 3068 3069 3070 3070 3071 3072 3073 3073 3074 3075 3075 3076 3076 3077 3078 3078 3079 3079 3079 3080 3080 3080 3080 3080 3080 3081 3081 3080 3080 3080 3079 3079 3078 3078 3077 3077 3076 3075 3074 3073 3073 3072 3071 3070 3070 3069 3069 3068 3068 3067 3066 3065 3065 3064 3064 3063 3063 3062 3061 3060 3059 3058 3057 3056 3056 3055
3048 3048 3049 3050 3052 3054 3055 3056 3057 3057 3058 3059 3059 3059 3060 3061 3062 3063 3064 3065 3066 3066 3067 3068 3069 3069 3070 3071 3071 3072 3072 3073 3074 3074 3074 3075 3075 3075 3076 3076 3076 3076 3076 3076 3076 3076 3076 3076 3076 3075 3074 3074 3073 3073 3072 3071 3070 3069 3069 3068 3067 3066 3065 3065 3064 3064 3063 3063 3062 3062 3061 3060 3060 3059 3058 3058 3057 3057 3056 3055 3054 3053 3053 3052 3051